Regional Weather Roundup
Issued by NWS

Home | Current Version | Previous Version | Graphics & Text | Print | Product List | Glossary On
Versions: 1 2 3 4 5 6 7 8 9 10 11 12 13 14 15 16 17 18 19 20 21 22 23 24 25 26 27 28 29 30 31 32 33 34 35 36 37 38 39 40 41 42 43 44 45 46 47 48 49 50
000
ASUS43 KLSX 270807
RWRMO

WEATHER SUMMARY FOR MISSOURI
NATIONAL WEATHER SERVICE SPRINGFIELD MO
200 AM CST SAT DEC 27 2014

NOTE: "FAIR" INDICATES FEW OR NO CLOUDS BELOW 12,000 FEET WITH NO
       SIGNIFICANT WEATHER AND/OR OBSTRUCTIONS TO VISIBILITY.
       CURRENT SKY AND/OR WEATHER CONDITIONS ARE NOT AVAILABLE FOR
       CHILLICOTHE AND FARMINGTON.

MOZ001>031-035>038-043-044-053-054-270900-
...NORTHERN AND WESTERN MISSOURI...

CITY           SKY/WX    TMP DP  RH WIND       PRES   REMARKS
KANSAS CTY INT CLOUDY    35  33  92 W17G23    30.07R WCI  25
KANSAS C DTWN  CLOUDY    38  33  82 W12       30.07R
LEE`S SUMMIT   CLOUDY    37  34  89 W12G22    30.06R WCI  29
ST JOSEPH      CLOUDY    35  32  88 W12       30.08R WCI  27
CHILLICOTHE      N/A     39  36  89 W8        30.02R
KIRKSVILLE     CLOUDY    43  43 100 CALM      29.94F FOG

$$
MOZ066>068-077>081-088>096-101>105-270900-
...SOUTHWEST MISSOURI...

CITY           SKY/WX    TMP DP  RH WIND       PRES   REMARKS
SPRINGFIELD    CLOUDY    50  49  96 S10       30.02R FOG
JOPLIN         CLOUDY    40  39  97 MISG      30.09R FOG

$$
MOZ032>034-039>042-045>050-055>058-069>072-270900-
...CENTRAL MISSOURI...

CITY           SKY/WX    TMP DP  RH WIND       PRES   REMARKS
COLUMBIA       CLOUDY    50  47  89 S9        30.00R
JEFFERSON CITY CLOUDY    50  46  86 SE5       30.01R
ROLLA          CLOUDY    47  45  93 S13       30.01S
SEDALIA        CLOUDY    52  49  89 SW9       29.99R
WHITEMAN AFB   DRIZZLE   41  40  95 W17G24    30.01R
WARRENSBURG    CLOUDY    39  37  93 W8        30.04R
OSAGE BEACH    CLOUDY    50  45  81 S8        30.01R

$$
MOZ051-052-059>065-270900-
...EAST CENTRAL MISSOURI...

CITY           SKY/WX    TMP DP  RH WIND       PRES   REMARKS
ST LOUIS INTL  CLOUDY    50  46  87 S9        30.05S
SPIRIT OF STL  CLOUDY    49  46  90 S9        30.04S
ST CHARLES     CLOUDY    48  46  93 S8        30.05R

$$
MOZ072>076-082>087-097>100-106>115-270900-
...SOUTH CENTRAL AND SOUTHEAST MISSOURI...

CITY           SKY/WX    TMP DP  RH WIND       PRES   REMARKS
CAPE GIRARDEAU CLOUDY    46  44  93 SE7       30.12F FOG
FARMINGTON     CLOUDY    46  45  93 SE8       30.10R
POPLAR BLUFF   LGT RAIN  47  44  90 CALM      30.12R FOG
WEST PLAINS    CLOUDY    47  46  97 S8        30.07S FOG

$$



USA.gov is the U.S. government's official web portal to all federal, state and local government web resources and services.